STARLINK-34706, 64845

Orbit data source: Space-Track

STARLINK-34706, 64845 is a payload satellite owned by SpaceX/Seattle (US) in SSO that was launched on Sat, 19 Jul 2025 UTC via an FALCON 9 launch vehicle from the Air Force Western Test Range (AFWTR). Payload-class satellites include a variety of spacecraft equipped with specific instruments for various scientific and technological missions. These include communications satellites like Starlink; space stations such as the ISS; scientific satellites like the Hubble; Earth observation satellites from companies like Planet Labs, Umbra, and HawkEye 360; GPS; miniature CubeSats for education and research; and military/defense satellites.

Loading next visibility...
Identifier
64845, 2025-152D
Orbit
SSO
Country
Flag of USUS
Related business
Manufacturer
SpaceX/Seattle
Mission
Operational Commercial Communications
Bus & Motor
STARLINK V2MO, Unknown motor
Mass
575 kg wet, ~530 kg dry
Launch date (UTC)
2025-07-19 (9 months ago)
Launch vehicle
FALCON 9
Launch site
Air Force Western Test Range (AFWTR)
Object type
Payload
Rocket body
Debris
Shape & HBR
Box + 2 Pan, 17.7 m
Radar Cross Section
36.964 m², Large (>1 m²)

Expand to show TLE details & history
Last TLE update: 12 hours ago

TLE from 12 hours ago
0 STARLINK-34706
1 64845U 25152D   26094.87440979  .00003659  00000-0  25762-3 0  9999
2 64845  97.6024 311.2554 0001992  89.3720 270.7735 15.05651317 39353
Epoch: 2026-04-04T20:59Z
TLE epoch observation values (Epoch: 2026-04-04T20:59:09.005Z)
Latitude
-0.00005°
Longitude
163.27996°
Altitude
552.554 km
Speed
7.586 km/s
True Right ascension
20h 45m 01s
True Declination
0° 00' 00"
Sunlit
Object was in daylight at epoch
Visualization orbit readout
Latitude
Unknown
Longitude
Unknown
Altitude
Unknown
Speed
Unknown
Apparent Right ascension
Unknown
Apparent Declination
Unknown
Sunlit
N/A
Visualization observer readout
Local Sidereal Time
14:30:58
Azimuth
Unknown
Elevation
Unknown
Doppler factor
Unknown
Orbital elements
Apogee altitude
547.88 km
Perigee altitude
545.121 km
Semi-major axis
6,924.638 km
Eccentricity
0.0002
Inclination
97.6024°
RAAN
311.2554°
Arg. of periapsis
89.372°
True anomaly
270.75068°
Mean anomaly
270.7735°
Eccentric anomaly
270.76209°
Mean motion
3.76658 °/min
Orbital period
95.58 mins
BSTAR
0.00025762
Loading maneuver chart data...
Computing Atmospheric mass density...
Loading historical data...
Loading historical data...
Loading historical data...
Loading historical data...
Loading historical data...
Loading historical data...
Loading historical data...

Documentation

Showing up to 5 results
|